Regional Weather Roundup
Issued by NWS Jackson, KY

Home | Current Version | Previous Version | Text Only | Print | Product List | Glossary On
Versions: 1 2 3 4 5 6 7 8 9 10 11 12 13 14 15 16 17 18 19 20 21 22 23 24 25 26 27 28 29 30 31 32 33 34 35 36 37 38 39 40 41 42 43 44 45 46 47 48 49 50
000
ASUS43 KJKL 262110
RWRJKL

EAST KENTUCKY HOURLY WEATHER ROUNDUP
NATIONAL WEATHER SERVICE JACKSON KY
500 PM EDT WED JUL 26 2017

NOTE: "FAIR" INDICATES FEW OR NO CLOUDS BELOW 12,000 FEET WITH
NO SIGNIFICANT WEATHER AND/OR OBSTRUCTIONS TO VISIBILITY.

* THESE REPORTS ARE NOT UNDER NWS QUALITY CONTROL AND MAY NOT
  REPORT WEATHER SUCH AS PRECIPITATION AND FOG.

KYZ079-080-083-085-087-088-110-112-115-119-120-262200
...EASTERN KENTUCKY...

CITY           SKY/WX    TMP DP  RH WIND       PRES   REMARKS
JACKSON        SUNNY     86  68  54 CALM      30.10F
LONDON         MOSUNNY   88  65  46 VRB3      30.09F HX  90
SOMERSET*      SUNNY     90  64  43 S3        30.08F HX  91
MONTICELLO*    SUNNY     91  72  53 W7        30.08F HX  98
WILLIAMSBURG*  PTCLDY    90  68  48 CALM      30.08F HX  93
MIDDLESBORO*   SUNNY     89  69  51 CALM      30.09F HX  93
PIKE CO APT*     N/A     86  65  50 NW5       30.11F
BIG SANDY APT* CLEAR     86  65  49 CALM      30.11F
MOREHEAD APT*  CLEAR     86  64  48 CALM      30.10F
ASHLAND*       SUNNY     86  68  54 CALM      30.05F
$$

KYZ035-036-041-042-044-050-067-078-099-262200
...CENTRAL KENTUCKY...

CITY           SKY/WX    TMP DP  RH WIND       PRES   REMARKS
MT STERLING*   MOSUNNY   86  68  54 CALM      30.09F
FLEMING/MASON* SUNNY     84  65  52 CALM      30.10S
DANVILLE*      MOSUNNY   91  70  49 S6        30.08F HX  97
LEXINGTON      MOSUNNY   87  67  51 S5        30.08F HX  90
FRANKFORT      MOSUNNY   87  68  52 CALM      30.05F HX  90
LOUISVILLE     PTSUNNY   91  71  51 S7        30.02F HX  97
LEBANON*         N/A     91  66  43 S5        30.05F HX  94
GLASGOW*       MOSUNNY   93  66  41 SW3       30.03F HX  95
BOWLING GREEN  CLOUDY    95  71  45 SW8       30.03S HX 102
$$

KYZ091>093-OHZ055-061-077-WVZ005-015-034-035-042-262200
...SOUTHERN OHIO/WEST VIRGINIA...

CITY           SKY/WX    TMP DP  RH WIND       PRES   REMARKS
COVINGTON      CLOUDY    85  68  56 SW6       30.06F
COLUMBUS       PTSUNNY   81  63  54 S6        30.07F
DAYTON         CLOUDY    82  60  47 W5        30.08F
WILMINGTON     SUNNY     81  65  58 S5        30.08F
HUNTINGTON     SUNNY     86  61  42 S5        30.07F
CHARLESTON     MOSUNNY   88  60  38 S9        30.08F
PINEVILLE*     MOSUNNY   86  62  44 MISG      30.17F
BECKLEY        MOSUNNY   80  62  54 CALM      30.17F
BLUEFIELD      PTSUNNY   78  60  53 SW6       30.20F
LOGAN CO APT*    N/A     86  61  42 CALM      30.11F
$$

VAZ002-007-008-TNZ017-027-036-066-071-262200
...SOUTHWEST VIRGINIA/EAST TENNESSEE...

CITY           SKY/WX    TMP DP  RH WIND       PRES   REMARKS
WISE*          MOSUNNY   82  57  42 NW6       30.19F
JONESVILLE*      N/A     90  68  48 CALM      30.12F HX  93
ABINGDON*      MOSUNNY   87  61  41 NW5       30.15F
BRISTOL        MOSUNNY   91  63  39 VRB6      30.11F HX  92
MORRISTOWN*    CLEAR     91  66  43 VRB7      30.08F HX  94
SEVIERVILLE*   PTCLDY    91  63  38 W3        30.06F HX  92
KNOXVILLE      MOSUNNY   92  66  42 VRB5      30.06F HX  94
LAFOLLETTE*    MOCLDY    88  72  58 CALM      30.11F HX  94
OAK RIDGE      MOSUNNY   94  68  42 S5        30.08F HX  98
CROSSVILLE     CLOUDY    87  68  52 N3        30.13F HX  90
NASHVILLE      CLOUDY    94  71  47 S9        30.04F HX 101
$$

...KEY TO REMARKS...
VSB - VISIBILITY IN MILES
WCI - WIND CHILL INDEX
HX  - HEAT INDEX

$$



USA.gov is the U.S. government's official web portal to all federal, state and local government web resources and services.